Regional Weather Roundup
Issued by NWS Sioux Falls, SD

Home | Current Version | Previous Version | Graphics & Text | Print | Product List | Glossary Off
Versions: 1 2 3 4 5 6 7 8 9 10 11 12 13 14 15 16 17 18 19 20 21 22 23 24 25 26 27 28 29 30 31 32 33 34 35 36 37 38 39 40 41 42 43 44 45 46 47 48 49 50

000
ASUS43 KFSD 032210
RWRFSD

WEATHER ROUNDUP FOR SE SOUTH DAKOTA/SW MINNESOTA/NW IOWA
NATIONAL WEATHER SERVICE SIOUX FALLS SD
500 PM CDT FRI JUL 03 2015

NOTE: "FAIR" INDICATES FEW OR NO CLOUDS BELOW 12,000 FEET WITH NO
SIGNIFICANT WEATHER AND OR OBSTRUCTIONS TO VISIBILITY.


SDZ038>040-050-052>070-032300-
SOUTHEAST SOUTH DAKOTA

CITY           SKY/WX    TMP DP  RH WIND       PRES   REMARKS
BROOKINGS      MOSUNNY   79  64  61 W7        29.97F
CHAMBERLAIN    SUNNY     81  64  56 CALM      29.96F
HURON          CLOUDY    79  67  66 SE7       29.93F
MADISON        MOCLDY    77  66  69 W7        29.97F
MITCHELL       MOSUNNY   81  65  58 SE5       29.95F
SIOUX FALLS    PTSUNNY   78  62  57 VRB3      29.97F
WINNER         FAIR      86  52  30 CALM      29.96F
YANKTON        SUNNY     77  63  61 NW6       29.95F
$$

MNZ071-072-080-081-089-090-097-098-032300-
SOUTHWEST MINNESOTA

CITY           SKY/WX    TMP DP  RH WIND       PRES   REMARKS
FAIRMONT       SUNNY     79  46  31 CALM      29.96S
JACKSON        SUNNY     79  55  44 W5        29.98S
LUVERNE        MOSUNNY   79  61  53 W8        29.97F
MARSHALL       MOSUNNY   82  63  51 NW3       29.92F
MONTEVIDEO     SUNNY     86  66  51 NW3       29.92F
PIPESTONE      MOSUNNY   79  63  57 W5        29.97F
REDWOOD FALLS  SUNNY     81  58  45 VRB3      29.93F
TRACY          MOSUNNY   81  63  54 SW3       29.95F
WINDOM         SUNNY     79  55  44 SW7       29.96F
WORTHINGTON    SUNNY     75  55  50 NW5       29.97F
$$

IAZ001>003-012>014-020>022-031-032-NEZ013-014-SDZ071-032300-
NORTHWEST IOWA

CITY           SKY/WX    TMP DP  RH WIND       PRES   REMARKS
CHEROKEE       SUNNY     75  54  47 CALM      29.98F
DENISON        SUNNY     75  54  46 N3        29.96F
ESTHERVILLE    SUNNY     77  56  48 W5        29.96F
LE MARS        SUNNY     77  59  53 SW5       29.98F
ORANGE CITY    SUNNY     73  55  53 CALM      29.98F
SHELDON        SUNNY     75  57  53 VRB5      29.96F
SIOUX CITY     SUNNY     79  58  48 NW6       29.97F
SPENCER        SUNNY     80  54  40 VRB7      29.97F
STORM LAKE     SUNNY     75  54  46 W6        29.99F
$$

ABBREVIATIONS USED IN REMARKS
   TC - TEMPERATURE IN CELSIUS
  WCI - WIND CHILL INDEX
   HX - HEAT INDEX
  VSB - VISIBILITY



USA.gov is the U.S. government's official web portal to all federal, state and local government web resources and services.